"read_dt","SO2 (ppb)","flags","PMT voltage (V)","lamp voltage (V)","lamp intensity (Hz)","internal temp (C)","react chamber temp (C)","sample flow (l/min)","pres (mmHg)","SO2 bkg (ppb)","SO2 coefficient"
2015-03-23 00:00:00,2404E-3,5C000000,-0724,0833,12344,026.0,045.4,0.475,728.0,01.19,0.508
2015-03-23 00:01:00,2433E-3,5C000000,-0724,0834,12244,025.9,045.4,0.475,728.1,01.19,0.508
2015-03-23 00:02:00,2462E-3,5C000000,-0724,0834,12114,025.8,045.4,0.475,728.1,01.19,0.508
2015-03-23 00:03:00,2557E-3,5C000000,-0724,0833,12240,025.7,045.4,0.475,728.1,01.19,0.508
2015-03-23 00:04:00,2528E-3,5C000000,-0724,0833,12070,025.7,045.4,0.475,728.1,01.19,0.508
2015-03-23 00:05:00,2589E-3,5C000000,-0724,0833,12175,025.6,045.4,0.475,728.1,01.19,0.508
2015-03-23 00:06:00,2458E-3,5C000000,-0724,0834,12210,025.5,045.4,0.475,728.1,01.19,0.508
2015-03-23 00:07:00,2642E-3,5C000000,-0724,0834,12260,025.5,045.4,0.475,728.1,01.19,0.508
2015-03-23 00:08:00,2493E-3,5C000000,-0724,0833,12221,025.4,045.3,0.475,728.1,01.19,0.508
2015-03-23 00:09:00,2692E-3,5C000000,-0724,0834,12182,025.4,045.4,0.475,728.1,01.19,0.508
2015-03-23 00:10:00,2576E-3,5C000000,-0724,0833,12023,025.3,045.4,0.476,728.1,01.19,0.508
2015-03-23 00:11:00,2583E-3,5C000000,-0724,0833,12100,025.3,045.4,0.475,728.1,01.19,0.508
2015-03-23 00:12:00,2558E-3,5C000000,-0724,0833,12039,025.2,045.4,0.476,728.2,01.19,0.508
2015-03-23 00:13:00,2726E-3,5C000000,-0724,0834,12226,025.2,045.4,0.476,728.1,01.19,0.508
2015-03-23 00:14:00,2703E-3,5C000000,-0724,0833,12033,025.2,045.4,0.475,728.2,01.19,0.508
2015-03-23 00:15:00,2491E-3,5C000000,-0724,0834,12159,025.1,045.4,0.476,728.2,01.19,0.508
2015-03-23 00:16:00,2632E-3,5C000000,-0724,0833,12261,025.1,045.4,0.476,728.2,01.19,0.508
2015-03-23 00:17:00,2602E-3,5C000000,-0724,0833,12119,025.1,045.4,0.476,728.2,01.19,0.508
2015-03-23 00:18:00,2609E-3,5C000000,-0724,0833,12115,025.1,045.4,0.476,728.2,01.19,0.508
2015-03-23 00:19:00,2504E-3,5C000000,-0724,0834,12056,025.0,045.4,0.476,728.2,01.19,0.508
2015-03-23 00:20:00,2608E-3,5C000000,-0724,0833,12091,025.0,045.4,0.476,728.1,01.19,0.508
2015-03-23 00:21:00,2657E-3,5C000000,-0724,0834,12234,025.0,045.4,0.476,728.1,01.19,0.508
2015-03-23 00:22:00,2593E-3,5C000000,-0724,0833,12250,025.0,045.3,0.476,728.1,01.19,0.508
2015-03-23 00:23:00,2704E-3,5C000000,-0724,0832,12029,025.0,045.4,0.476,728.1,01.19,0.508
2015-03-23 00:24:00,2581E-3,5C000000,-0724,0833,12043,025.0,045.4,0.476,728.1,01.19,0.508
2015-03-23 00:25:00,2652E-3,5C000000,-0724,0834,12066,025.2,045.4,0.476,728.1,01.19,0.508
2015-03-23 00:26:00,2655E-3,5C000000,-0724,0834,12174,025.3,045.4,0.476,728.0,01.19,0.508
2015-03-23 00:27:00,2583E-3,5C000000,-0724,0833,12173,025.5,045.4,0.476,728.1,01.19,0.508
2015-03-23 00:28:00,2565E-3,5C000000,-0724,0833,12232,025.6,045.4,0.475,728.1,01.19,0.508
2015-03-23 00:29:00,2598E-3,5C000000,-0724,0833,12001,025.7,045.4,0.476,728.1,01.19,0.508
2015-03-23 00:30:00,2650E-3,5C000000,-0724,0834,12124,025.8,045.4,0.475,728.0,01.19,0.508
2015-03-23 00:31:00,2647E-3,5C000000,-0724,0833,12149,025.9,045.4,0.475,728.0,01.19,0.508
2015-03-23 00:32:00,2521E-3,5C000000,-0724,0833,11898,026.0,045.4,0.475,728.0,01.19,0.508
2015-03-23 00:33:00,2447E-3,5C000000,-0724,0834,12023,026.1,045.4,0.475,728.0,01.19,0.508
2015-03-23 00:34:00,2637E-3,5C000000,-0724,0833,11986,026.1,045.4,0.475,728.0,01.19,0.508
2015-03-23 00:35:00,2480E-3,5C000000,-0724,0834,12194,026.2,045.4,0.474,728.1,01.19,0.508
2015-03-23 00:36:00,2551E-3,5C000000,-0724,0834,12175,026.2,045.4,0.475,728.0,01.19,0.508
2015-03-23 00:37:00,2682E-3,5C000000,-0724,0833,12164,026.3,045.4,0.475,728.1,01.19,0.508
2015-03-23 00:38:00,2567E-3,5C000000,-0724,0833,12327,026.3,045.4,0.474,728.0,01.19,0.508
2015-03-23 00:39:00,2611E-3,5C000000,-0724,0834,12120,026.4,045.4,0.475,728.0,01.19,0.508
2015-03-23 00:40:00,2593E-3,5C000000,-0724,0833,12331,026.4,045.4,0.474,728.0,01.19,0.508
2015-03-23 00:41:00,2592E-3,5C000000,-0724,0833,12169,026.5,045.4,0.474,728.0,01.19,0.508
2015-03-23 00:42:00,2811E-3,5C000000,-0724,0834,12135,026.5,045.4,0.474,728.0,01.19,0.508
2015-03-23 00:43:00,2725E-3,5C000000,-0724,0833,11987,026.6,045.4,0.474,728.0,01.19,0.508
2015-03-23 00:44:00,2861E-3,5C000000,-0724,0833,12051,026.5,045.4,0.474,728.0,01.19,0.508
2015-03-23 00:45:00,2679E-3,5C000000,-0724,0834,12210,026.6,045.4,0.474,728.0,01.19,0.508
2015-03-23 00:46:00,2917E-3,5C000000,-0724,0834,12137,026.6,045.4,0.474,728.0,01.19,0.508
2015-03-23 00:47:00,2899E-3,5C000000,-0724,0833,12170,026.6,045.4,0.474,728.0,01.19,0.508
2015-03-23 00:48:00,2834E-3,5C000000,-0724,0834,12125,026.6,045.4,0.474,728.0,01.19,0.508
2015-03-23 00:49:00,2827E-3,5C000000,-0724,0834,12044,026.6,045.4,0.474,728.0,01.19,0.508
2015-03-23 00:50:00,2762E-3,5C000000,-0724,0833,12020,026.7,045.4,0.474,728.0,01.19,0.508
2015-03-23 00:51:00,2847E-3,5C000000,-0724,0834,12385,026.7,045.4,0.474,728.0,01.19,0.508
2015-03-23 00:52:00,2941E-3,5C000000,-0724,0833,12228,026.7,045.4,0.473,728.0,01.19,0.508
2015-03-23 00:53:00,2856E-3,5C000000,-0724,0834,12123,026.7,045.4,0.474,728.0,01.19,0.508
2015-03-23 00:54:00,2896E-3,5C000000,-0724,0834,12130,026.7,045.4,0.473,727.9,01.19,0.508
2015-03-23 00:55:00,2879E-3,5C000000,-0724,0833,12109,026.7,045.4,0.474,728.0,01.19,0.508
2015-03-23 00:56:00,2867E-3,5C000000,-0724,0833,12311,026.7,045.4,0.473,728.0,01.19,0.508
2015-03-23 00:57:00,2919E-3,5C000000,-0724,0834,12264,026.6,045.4,0.473,727.9,01.19,0.508
2015-03-23 00:58:00,2947E-3,5C000000,-0724,0834,12054,026.6,045.4,0.474,728.0,01.19,0.508
2015-03-23 00:59:00,2894E-3,5C000000,-0724,0833,11968,026.5,045.4,0.474,727.9,01.19,0.508
2015-03-23 01:00:00,2860E-3,5C000000,-0724,0833,12204,026.4,045.4,0.474,728.0,01.19,0.508
2015-03-23 01:01:00,2933E-3,5C000000,-0724,0833,12076,026.3,045.4,0.474,728.0,01.19,0.508
2015-03-23 01:02:00,2999E-3,5C000000,-0724,0833,12140,026.2,045.4,0.474,727.9,01.19,0.508
2015-03-23 01:03:00,2638E-3,5C000000,-0724,0833,12040,026.1,045.4,0.474,728.0,01.19,0.508
2015-03-23 01:04:00,2938E-3,5C000000,-0724,0832,12054,026.0,045.4,0.474,728.0,01.19,0.508
2015-03-23 01:05:00,2964E-3,5C000000,-0724,0833,12079,025.9,045.4,0.475,728.0,01.19,0.508
2015-03-23 01:06:00,2997E-3,5C000000,-0724,0834,12169,025.9,045.4,0.475,727.9,01.19,0.508
2015-03-23 01:07:00,2855E-3,5C000000,-0724,0833,12105,025.8,045.4,0.475,727.9,01.19,0.508
2015-03-23 01:08:00,2845E-3,5C000000,-0724,0833,12343,025.7,045.4,0.474,727.9,01.19,0.508
2015-03-23 01:09:00,2836E-3,5C000000,-0724,0833,12284,025.6,045.4,0.475,727.9,01.19,0.508
2015-03-23 01:10:00,2904E-3,5C000000,-0724,0833,12190,025.6,045.4,0.475,727.9,01.19,0.508
2015-03-23 01:11:00,2952E-3,5C000000,-0724,0832,12073,025.5,045.4,0.475,727.8,01.19,0.508
2015-03-23 01:12:00,2891E-3,5C000000,-0724,0833,12047,025.5,045.4,0.475,727.8,01.19,0.508
2015-03-23 01:13:00,2802E-3,5C000000,-0724,0832,12142,025.4,045.4,0.475,727.9,01.19,0.508
2015-03-23 01:14:00,2896E-3,5C000000,-0724,0833,12175,025.3,045.4,0.475,727.8,01.19,0.508
2015-03-23 01:15:00,3021E-3,5C000000,-0724,0833,11994,025.3,045.3,0.475,727.8,01.19,0.508
2015-03-23 01:16:00,3014E-3,5C000000,-0724,0833,12418,025.3,045.3,0.475,727.9,01.19,0.508
2015-03-23 01:17:00,2947E-3,5C000000,-0724,0833,12066,025.2,045.4,0.476,727.9,01.19,0.508
2015-03-23 01:18:00,2886E-3,5C000000,-0724,0833,12091,025.2,045.3,0.476,727.9,01.19,0.508
2015-03-23 01:19:00,2904E-3,5C000000,-0724,0833,12115,025.2,045.4,0.475,727.9,01.19,0.508
2015-03-23 01:20:00,2938E-3,5C000000,-0724,0834,12247,025.1,045.4,0.476,727.8,01.19,0.508
2015-03-23 01:21:00,2850E-3,5C000000,-0724,0833,12260,025.1,045.4,0.475,727.9,01.19,0.508
2015-03-23 01:22:00,2944E-3,5C000000,-0724,0833,12213,025.1,045.4,0.476,727.9,01.19,0.508
2015-03-23 01:23:00,2968E-3,5C000000,-0724,0833,12200,025.1,045.4,0.476,727.9,01.19,0.508
2015-03-23 01:24:00,2907E-3,5C000000,-0724,0833,12160,025.0,045.4,0.475,727.9,01.19,0.508
2015-03-23 01:25:00,2795E-3,5C000000,-0724,0834,12086,025.0,045.4,0.476,727.9,01.19,0.508
2015-03-23 01:26:00,2935E-3,5C000000,-0724,0833,12171,025.0,045.4,0.476,727.9,01.19,0.508
2015-03-23 01:27:00,2822E-3,5C000000,-0724,0831,11987,025.0,045.4,0.476,727.9,01.19,0.508
2015-03-23 01:28:00,2983E-3,5C000000,-0724,0834,12219,025.0,045.4,0.476,727.9,01.19,0.508
2015-03-23 01:29:00,2935E-3,5C000000,-0724,0833,12148,025.0,045.3,0.476,727.9,01.19,0.508
2015-03-23 01:30:00,2963E-3,5C000000,-0724,0832,12062,025.0,045.4,0.476,727.9,01.19,0.508
2015-03-23 01:31:00,2910E-3,5C000000,-0724,0831,12194,025.0,045.4,0.476,727.8,01.19,0.508
2015-03-23 01:32:00,2885E-3,5C000000,-0724,0833,12215,025.1,045.4,0.476,727.9,01.19,0.508
2015-03-23 01:33:00,2744E-3,5C000000,-0724,0833,12198,025.3,045.4,0.475,727.8,01.19,0.508
2015-03-23 01:34:00,2898E-3,5C000000,-0724,0833,12044,025.5,045.4,0.476,727.8,01.19,0.508
2015-03-23 01:35:00,2809E-3,5C000000,-0724,0833,12019,025.6,045.4,0.475,727.8,01.19,0.508
2015-03-23 01:36:00,2832E-3,5C000000,-0724,0834,12114,025.7,045.4,0.476,727.8,01.19,0.508
2015-03-23 01:37:00,2934E-3,5C000000,-0724,0833,12041,025.8,045.4,0.475,727.8,01.19,0.508
2015-03-23 01:38:00,2917E-3,5C000000,-0724,0834,12244,025.8,045.4,0.475,727.7,01.19,0.508
2015-03-23 01:39:00,2780E-3,5C000000,-0724,0835,12106,025.9,045.4,0.475,727.7,01.19,0.508
2015-03-23 01:40:00,2802E-3,5C000000,-0724,0833,12143,026.0,045.4,0.474,727.7,01.19,0.508
2015-03-23 01:41:00,2862E-3,5C000000,-0724,0833,12218,026.0,045.4,0.475,727.7,01.19,0.508
2015-03-23 01:42:00,2901E-3,5C000000,-0724,0834,12167,026.1,045.4,0.474,727.8,01.19,0.508
2015-03-23 01:43:00,2961E-3,5C000000,-0724,0833,12288,026.2,045.4,0.475,727.8,01.19,0.508
2015-03-23 01:44:00,2900E-3,5C000000,-0724,0833,11916,026.2,045.4,0.474,727.7,01.19,0.508
2015-03-23 01:45:00,2785E-3,5C000000,-0724,0834,12071,026.3,045.4,0.474,727.8,01.19,0.508
2015-03-23 01:46:00,3041E-3,5C000000,-0724,0833,12184,026.3,045.4,0.475,727.8,01.19,0.508
2015-03-23 01:47:00,2992E-3,5C000000,-0724,0834,12202,026.4,045.4,0.474,727.7,01.19,0.508
2015-03-23 01:48:00,3018E-3,5C000000,-0724,0833,12230,026.4,045.4,0.474,727.8,01.19,0.508
2015-03-23 01:49:00,3025E-3,5C000000,-0724,0833,12173,026.4,045.4,0.474,727.7,01.19,0.508
2015-03-23 01:50:00,2931E-3,5C000000,-0724,0833,12062,026.5,045.4,0.474,727.8,01.19,0.508
2015-03-23 01:51:00,3078E-3,5C000000,-0724,0834,12188,026.5,045.4,0.474,727.7,01.19,0.508
2015-03-23 01:52:00,3014E-3,5C000000,-0724,0834,12111,026.6,045.4,0.474,727.8,01.19,0.508
2015-03-23 01:53:00,3006E-3,5C000000,-0724,0833,12097,026.6,045.4,0.474,727.7,01.19,0.508
2015-03-23 01:54:00,2977E-3,5C000000,-0724,0834,12220,026.6,045.4,0.474,727.8,01.19,0.508
2015-03-23 01:55:00,3086E-3,5C000000,-0724,0833,12137,026.6,045.4,0.473,727.7,01.19,0.508
2015-03-23 01:56:00,2856E-3,5C000000,-0724,0834,12056,026.6,045.4,0.474,727.7,01.19,0.508
2015-03-23 01:57:00,3163E-3,5C000000,-0724,0834,12239,026.7,045.4,0.473,727.7,01.19,0.508
2015-03-23 01:58:00,3051E-3,5C000000,-0724,0835,12016,026.7,045.4,0.474,727.7,01.19,0.508
2015-03-23 01:59:00,2851E-3,5C000000,-0724,0835,12017,026.7,045.4,0.473,727.7,01.19,0.508
2015-03-23 02:00:00,2945E-3,5C000000,-0724,0834,12141,026.7,045.4,0.474,727.7,01.19,0.508
2015-03-23 02:01:00,2994E-3,5C000000,-0724,0834,12099,026.7,045.4,0.473,727.7,01.19,0.508
2015-03-23 02:02:00,2931E-3,5C000000,-0724,0834,12252,026.7,045.4,0.473,727.6,01.19,0.508
2015-03-23 02:03:00,2853E-3,5C000000,-0724,0833,12119,026.6,045.4,0.474,727.6,01.19,0.508
2015-03-23 02:04:00,2858E-3,5C000000,-0724,0833,12245,026.5,045.4,0.473,727.6,01.19,0.508
2015-03-23 02:05:00,3051E-3,5C000000,-0724,0834,12201,026.4,045.4,0.473,727.7,01.19,0.508
2015-03-23 02:06:00,2896E-3,5C000000,-0724,0833,12231,026.4,045.4,0.474,727.6,01.19,0.508
2015-03-23 02:07:00,2898E-3,5C000000,-0724,0834,12134,026.2,045.4,0.474,727.6,01.19,0.508
2015-03-23 02:08:00,2985E-3,5C000000,-0724,0833,12067,026.1,045.4,0.474,727.5,01.19,0.508
2015-03-23 02:09:00,2874E-3,5C000000,-0724,0833,12222,026.0,045.4,0.474,727.4,01.19,0.508
2015-03-23 02:10:00,2950E-3,5C000000,-0724,0834,12019,026.0,045.4,0.474,727.5,01.19,0.508
2015-03-23 02:11:00,2910E-3,5C000000,-0724,0833,12117,025.9,045.4,0.475,727.5,01.19,0.508
2015-03-23 02:12:00,3008E-3,5C000000,-0724,0834,12203,025.8,045.3,0.474,727.3,01.19,0.508
2015-03-23 02:13:00,3195E-3,5C000000,-0724,0833,12123,025.7,045.4,0.474,727.4,01.19,0.508
2015-03-23 02:14:00,3106E-3,5C000000,-0724,0833,12156,025.6,045.4,0.474,727.4,01.19,0.508
2015-03-23 02:15:00,2842E-3,5C000000,-0724,0834,12006,025.6,045.4,0.475,727.4,01.19,0.508
2015-03-23 02:16:00,3126E-3,5C000000,-0724,0834,12225,025.5,045.4,0.475,727.4,01.19,0.508
2015-03-23 02:17:00,3059E-3,5C000000,-0724,0834,12354,025.5,045.4,0.475,727.4,01.19,0.508
2015-03-23 02:18:00,3037E-3,5C000000,-0724,0834,12047,025.4,045.3,0.475,727.3,01.19,0.508
2015-03-23 02:19:00,2881E-3,5C000000,-0724,0833,12225,025.4,045.4,0.475,727.4,01.19,0.508
2015-03-23 02:20:00,3096E-3,5C000000,-0724,0833,12116,025.3,045.4,0.475,727.4,01.19,0.508
2015-03-23 02:21:00,2959E-3,5C000000,-0724,0834,12160,025.3,045.4,0.475,727.3,01.19,0.508
2015-03-23 02:22:00,2994E-3,5C000000,-0724,0834,12201,025.2,045.4,0.475,727.4,01.19,0.508
2015-03-23 02:23:00,3190E-3,5C000000,-0724,0833,12345,025.2,045.4,0.475,727.4,01.19,0.508
2015-03-23 02:24:00,3038E-3,5C000000,-0724,0833,12144,025.2,045.4,0.476,727.2,01.19,0.508
2015-03-23 02:25:00,3095E-3,5C000000,-0724,0833,12104,025.1,045.4,0.475,727.3,01.19,0.508
2015-03-23 02:26:00,2926E-3,5C000000,-0724,0833,12137,025.1,045.4,0.476,727.3,01.19,0.508
2015-03-23 02:27:00,3042E-3,5C000000,-0724,0833,12166,025.1,045.4,0.475,727.3,01.19,0.508
2015-03-23 02:28:00,3077E-3,5C000000,-0724,0833,12259,025.0,045.4,0.475,727.3,01.19,0.508
2015-03-23 02:29:00,3097E-3,5C000000,-0724,0834,12242,025.0,045.4,0.476,727.3,01.19,0.508
2015-03-23 02:30:00,3040E-3,5C000000,-0724,0833,12056,025.0,045.4,0.475,727.1,01.19,0.508
2015-03-23 02:31:00,3108E-3,5C000000,-0724,0833,12166,025.0,045.3,0.476,727.2,01.19,0.508
2015-03-23 02:32:00,3255E-3,5C000000,-0724,0833,12185,025.0,045.4,0.475,727.1,01.19,0.508
2015-03-23 02:33:00,3233E-3,5C000000,-0724,0834,12105,025.1,045.4,0.476,727.1,01.19,0.508
2015-03-23 02:34:00,3105E-3,5C000000,-0724,0833,11912,025.2,045.4,0.475,727.1,01.19,0.508
2015-03-23 02:35:00,3117E-3,5C000000,-0724,0834,12306,025.3,045.4,0.476,727.0,01.19,0.508
2015-03-23 02:36:00,3091E-3,5C000000,-0724,0833,12188,025.5,045.4,0.475,727.1,01.19,0.508
2015-03-23 02:37:00,3098E-3,5C000000,-0724,0834,12214,025.6,045.4,0.475,727.0,01.19,0.508
2015-03-23 02:38:00,3203E-3,5C000000,-0724,0834,12134,025.7,045.4,0.475,727.1,01.19,0.508
2015-03-23 02:39:00,3098E-3,5C000000,-0724,0833,12141,025.8,045.4,0.475,727.1,01.19,0.508
2015-03-23 02:40:00,3214E-3,5C000000,-0724,0833,12201,025.9,045.4,0.475,727.1,01.19,0.508
2015-03-23 02:41:00,2895E-3,5C000000,-0724,0833,12221,025.9,045.4,0.475,727.1,01.19,0.508
2015-03-23 02:42:00,3447E-3,5C000000,-0724,0834,12181,026.0,045.4,0.474,727.1,01.19,0.508
2015-03-23 02:43:00,3291E-3,5C000000,-0724,0834,12097,026.1,045.4,0.474,727.1,01.19,0.508
2015-03-23 02:44:00,3198E-3,5C000000,-0724,0833,12110,026.1,045.4,0.475,727.1,01.19,0.508
2015-03-23 02:45:00,3300E-3,5C000000,-0724,0832,12145,026.2,045.4,0.474,727.1,01.19,0.508
2015-03-23 02:46:00,3346E-3,5C000000,-0724,0834,12267,026.3,045.4,0.474,727.1,01.19,0.508
2015-03-23 02:47:00,3139E-3,5C000000,-0724,0833,12210,026.3,045.4,0.474,727.1,01.19,0.508
2015-03-23 02:48:00,3198E-3,5C000000,-0724,0834,12280,026.3,045.4,0.474,727.1,01.19,0.508
2015-03-23 02:49:00,3253E-3,5C000000,-0724,0833,12136,026.4,045.4,0.474,727.1,01.19,0.508
2015-03-23 02:50:00,3141E-3,5C000000,-0724,0834,12160,026.4,045.4,0.474,727.1,01.19,0.508
2015-03-23 02:51:00,3326E-3,5C000000,-0724,0833,12143,026.4,045.4,0.474,727.2,01.19,0.508
2015-03-23 02:52:00,3210E-3,5C000000,-0724,0834,12112,026.5,045.4,0.474,727.1,01.19,0.508
2015-03-23 02:53:00,3496E-3,5C000000,-0724,0834,12221,026.5,045.4,0.473,727.1,01.19,0.508
2015-03-23 02:54:00,3279E-3,5C000000,-0724,0834,12156,026.5,045.4,0.474,727.3,01.19,0.508
2015-03-23 02:55:00,3499E-3,5C000000,-0724,0833,12129,026.5,045.4,0.473,727.3,01.19,0.508
2015-03-23 02:56:00,3129E-3,5C000000,-0724,0833,12084,026.5,045.4,0.474,727.4,01.19,0.508
2015-03-23 02:57:00,3136E-3,5C000000,-0724,0834,12138,026.6,045.4,0.473,727.3,01.19,0.508
2015-03-23 02:58:00,3252E-3,5C000000,-0724,0834,12064,026.6,045.4,0.474,727.3,01.19,0.508
2015-03-23 02:59:00,3269E-3,5C000000,-0724,0834,12262,026.6,045.4,0.473,727.4,01.19,0.508
2015-03-23 03:00:00,3325E-3,5C000000,-0724,0834,12303,026.6,045.4,0.474,727.4,01.19,0.508
2015-03-23 03:01:00,3354E-3,5C000000,-0724,0834,12150,026.6,045.4,0.473,727.4,01.19,0.508
2015-03-23 03:02:00,3172E-3,5C000000,-0724,0834,12244,026.6,045.4,0.474,727.4,01.19,0.508
2015-03-23 03:03:00,3351E-3,5C000000,-0724,0834,12161,026.5,045.4,0.473,727.4,01.19,0.508
2015-03-23 03:04:00,3260E-3,5C000000,-0724,0834,12219,026.5,045.4,0.473,727.5,01.19,0.508
2015-03-23 03:05:00,3369E-3,5C000000,-0724,0833,12119,026.4,045.4,0.474,727.3,01.19,0.508
2015-03-23 03:06:00,3256E-3,5C000000,-0724,0834,12293,026.3,045.4,0.474,727.5,01.19,0.508
2015-03-23 03:07:00,3413E-3,5C000000,-0724,0832,12147,026.2,045.4,0.474,727.3,01.19,0.508
2015-03-23 03:08:00,3232E-3,5C000000,-0724,0832,12121,026.1,045.4,0.474,727.3,01.19,0.508
2015-03-23 03:09:00,3435E-3,5C000000,-0724,0832,12112,026.0,045.4,0.474,727.4,01.19,0.508
2015-03-23 03:10:00,3347E-3,5C000000,-0724,0834,12254,025.9,045.4,0.474,727.5,01.19,0.508
2015-03-23 03:11:00,3327E-3,5C000000,-0724,0834,12218,025.8,045.4,0.474,727.4,01.19,0.508
2015-03-23 03:12:00,3480E-3,5C000000,-0724,0833,12352,025.7,045.4,0.475,727.4,01.19,0.508
2015-03-23 03:13:00,3299E-3,5C000000,-0724,0834,12171,025.6,045.4,0.475,727.4,01.19,0.508
2015-03-23 03:14:00,3295E-3,5C000000,-0724,0833,12148,025.6,045.4,0.474,727.4,01.19,0.508
2015-03-23 03:15:00,3379E-3,5C000000,-0724,0833,12293,025.5,045.4,0.475,727.4,01.19,0.508
2015-03-23 03:16:00,3420E-3,5C000000,-0724,0832,12068,025.5,045.4,0.475,727.4,01.19,0.508
2015-03-23 03:17:00,3428E-3,5C000000,-0724,0833,12122,025.4,045.4,0.475,727.5,01.19,0.508
2015-03-23 03:18:00,3250E-3,5C000000,-0724,0833,12075,025.4,045.4,0.475,727.4,01.19,0.508
2015-03-23 03:19:00,3332E-3,5C000000,-0724,0833,12070,025.4,045.4,0.475,727.5,01.19,0.508
2015-03-23 03:20:00,3398E-3,5C000000,-0724,0833,12120,025.3,045.4,0.475,727.4,01.19,0.508
2015-03-23 03:21:00,3355E-3,5C000000,-0724,0833,12245,025.2,045.4,0.475,727.4,01.19,0.508
2015-03-23 03:22:00,3375E-3,5C000000,-0724,0833,12173,025.2,045.4,0.475,727.5,01.19,0.508
2015-03-23 03:23:00,3336E-3,5C000000,-0724,0833,11987,025.2,045.3,0.475,727.4,01.19,0.508
2015-03-23 03:24:00,3569E-3,5C000000,-0724,0833,12142,025.1,045.4,0.476,727.4,01.19,0.508
2015-03-23 03:25:00,3433E-3,5C000000,-0724,0833,12129,025.1,045.4,0.475,727.4,01.19,0.508
2015-03-23 03:26:00,3337E-3,5C000000,-0724,0833,12163,025.1,045.4,0.476,727.5,01.19,0.508
2015-03-23 03:27:00,3468E-3,5C000000,-0724,0833,12248,025.1,045.3,0.476,727.5,01.19,0.508
2015-03-23 03:28:00,3397E-3,5C000000,-0724,0833,12140,025.1,045.4,0.476,727.6,01.19,0.508
2015-03-23 03:29:00,3332E-3,5C000000,-0724,0833,12347,025.2,045.4,0.476,727.5,01.19,0.508
2015-03-23 03:30:00,3378E-3,5C000000,-0724,0834,12112,025.3,045.4,0.476,727.5,01.19,0.508
2015-03-23 03:31:00,3364E-3,5C000000,-0724,0833,12101,025.4,045.4,0.475,727.5,01.19,0.508
2015-03-23 03:32:00,3548E-3,5C000000,-0724,0833,12153,025.6,045.4,0.476,727.5,01.19,0.508
2015-03-23 03:33:00,3297E-3,5C000000,-0724,0833,12076,025.6,045.4,0.475,727.4,01.19,0.508
2015-03-23 03:34:00,3373E-3,5C000000,-0724,0834,12260,025.7,045.4,0.475,727.5,01.19,0.508
2015-03-23 03:35:00,3355E-3,5C000000,-0724,0833,12214,025.8,045.4,0.475,727.4,01.19,0.508
2015-03-23 03:36:00,3465E-3,5C000000,-0724,0833,12017,025.9,045.4,0.475,727.5,01.19,0.508
2015-03-23 03:37:00,3364E-3,5C000000,-0724,0833,12124,025.9,045.4,0.475,727.5,01.19,0.508
2015-03-23 03:38:00,3495E-3,5C000000,-0724,0834,12062,026.0,045.4,0.475,727.5,01.19,0.508
2015-03-23 03:39:00,3452E-3,5C000000,-0724,0834,12197,026.1,045.4,0.474,727.4,01.19,0.508
2015-03-23 03:40:00,3358E-3,5C000000,-0724,0834,12090,026.1,045.4,0.475,727.4,01.19,0.508
2015-03-23 03:41:00,3278E-3,5C000000,-0724,0833,12094,026.2,045.4,0.474,727.5,01.19,0.508
2015-03-23 03:42:00,3469E-3,5C000000,-0724,0834,12137,026.2,045.4,0.474,727.5,01.19,0.508
2015-03-23 03:43:00,3505E-3,5C000000,-0724,0834,12065,026.3,045.4,0.475,727.4,01.19,0.508
2015-03-23 03:44:00,3273E-3,5C000000,-0724,0834,12096,026.3,045.4,0.474,727.5,01.19,0.508
2015-03-23 03:45:00,3540E-3,5C000000,-0724,0834,12251,026.3,045.4,0.474,727.4,01.19,0.508
2015-03-23 03:46:00,3392E-3,5C000000,-0724,0835,12109,026.4,045.4,0.474,727.4,01.19,0.508
2015-03-23 03:47:00,3479E-3,5C000000,-0724,0834,12231,026.4,045.4,0.474,727.5,01.19,0.508
2015-03-23 03:48:00,3341E-3,5C000000,-0724,0833,12096,026.5,045.4,0.474,727.4,01.19,0.508
2015-03-23 03:49:00,3605E-3,5C000000,-0724,0834,12091,026.5,045.4,0.474,727.4,01.19,0.508
2015-03-23 03:50:00,3460E-3,5C000000,-0724,0834,12207,026.5,045.4,0.474,727.4,01.19,0.508
2015-03-23 03:51:00,3365E-3,5C000000,-0724,0834,12085,026.4,045.4,0.474,727.4,01.19,0.508
2015-03-23 03:52:00,3215E-3,5C000000,-0724,0833,12099,026.4,045.4,0.474,727.3,01.19,0.508
2015-03-23 03:53:00,3495E-3,5C000000,-0724,0834,12250,026.3,045.4,0.473,727.4,01.19,0.508
2015-03-23 03:54:00,3361E-3,5C000000,-0724,0834,12208,026.2,045.4,0.474,727.5,01.19,0.508
2015-03-23 03:55:00,3515E-3,5C000000,-0724,0833,12176,026.1,045.4,0.474,727.3,01.19,0.508
2015-03-23 03:56:00,3403E-3,5C000000,-0724,0835,12010,026.0,045.4,0.474,727.4,01.19,0.508
2015-03-23 03:57:00,3503E-3,5C000000,-0724,0834,12044,025.9,045.4,0.474,727.4,01.19,0.508
2015-03-23 03:58:00,3604E-3,5C000000,-0724,0834,12037,025.9,045.4,0.474,727.4,01.19,0.508
2015-03-23 03:59:00,3547E-3,5C000000,-0724,0834,12278,025.8,045.4,0.474,727.4,01.19,0.508
2015-03-23 04:00:00,3652E-3,5C000000,-0724,0833,12250,025.7,045.4,0.475,727.4,01.19,0.508
2015-03-23 04:01:00,3540E-3,5C000000,-0724,0834,12088,025.6,045.4,0.474,727.4,01.19,0.508
2015-03-23 04:02:00,3621E-3,5C000000,-0724,0832,12172,025.6,045.4,0.475,727.4,01.19,0.508
2015-03-23 04:03:00,3505E-3,5C000000,-0724,0833,12214,025.5,045.4,0.475,727.3,01.19,0.508
2015-03-23 04:04:00,3651E-3,5C000000,-0724,0833,12154,025.5,045.3,0.475,727.4,01.19,0.508
2015-03-23 04:05:00,3557E-3,5C000000,-0724,0834,12143,025.4,045.4,0.475,727.4,01.19,0.508
2015-03-23 04:06:00,3699E-3,5C000000,-0724,0833,12150,025.3,045.4,0.475,727.4,01.19,0.508
2015-03-23 04:07:00,3617E-3,5C000000,-0724,0834,12180,025.3,045.4,0.475,727.5,01.19,0.508
2015-03-23 04:08:00,3492E-3,5C000000,-0724,0833,12249,025.3,045.4,0.475,727.4,01.19,0.508
2015-03-23 04:09:00,3536E-3,5C000000,-0724,0832,12102,025.2,045.4,0.476,727.5,01.19,0.508
2015-03-23 04:10:00,3510E-3,5C000000,-0724,0833,12064,025.2,045.4,0.475,727.5,01.19,0.508
2015-03-23 04:11:00,3537E-3,5C000000,-0724,0832,12229,025.2,045.4,0.476,727.4,01.19,0.508
2015-03-23 04:12:00,3641E-3,5C000000,-0724,0833,12147,025.1,045.4,0.475,727.5,01.19,0.508
2015-03-23 04:13:00,3448E-3,5C000000,-0724,0834,12169,025.1,045.4,0.476,727.6,01.19,0.508
2015-03-23 04:14:00,3623E-3,5C000000,-0724,0833,12358,025.0,045.4,0.475,727.5,01.19,0.508
2015-03-23 04:15:00,3573E-3,5C000000,-0724,0833,12164,025.0,045.4,0.476,727.6,01.19,0.508
2015-03-23 04:16:00,3647E-3,5C000000,-0724,0833,12211,025.0,045.4,0.476,727.6,01.19,0.508
2015-03-23 04:17:00,3578E-3,5C000000,-0724,0833,12159,025.0,045.4,0.476,727.6,01.19,0.508
2015-03-23 04:18:00,3693E-3,5C000000,-0724,0833,12032,025.0,045.4,0.476,727.5,01.19,0.508
2015-03-23 04:19:00,3536E-3,5C000000,-0724,0833,12209,025.0,045.4,0.476,727.5,01.19,0.508
2015-03-23 04:20:00,3527E-3,5C000000,-0724,0833,12255,025.2,045.4,0.476,727.5,01.19,0.508